FW1983 Weather Reports


time (UTC)temp
C
wind
direction
speed
KPH
gust
KPH
rain 1hr
cm
rain 24hr
cm
rain mn
cm
humidity
%
barometer
mb
20260504034623 15 236 0.0 3.2 0.00 0.00 0.00 58 1004.6
20260504033059 16 236 0.0 1.6 0.00 0.00 0.00 57 1004.8
20260504031559 16 236 0.0 3.2 0.00 0.00 0.00 56 1004.9
20260504030058 16 240 0.0 3.2 0.00 0.00 0.00 55 1005.0
20260504024557 16 207 1.6 4.8 0.00 0.00 0.00 54 1004.9
20260504023057 17 207 1.6 6.4 0.00 0.00 0.00 53 1004.7
20260504021556 17 210 1.6 6.4 0.00 0.00 0.00 53 1004.7
20260504020122 17 231 1.6 8.0 0.00 0.00 0.00 52 1004.7
20260504014600 17 222 1.6 9.7 0.00 0.00 0.00 51 1004.4
20260504013115 17 229 1.6 6.4 0.00 0.00 0.00 50 1004.3
20260504011555 18 215 3.2 11.3 0.00 0.00 0.00 49 1004.0
20260504010057 18 233 1.6 9.7 0.00 0.00 0.00 48 1004.1
20260504004554 18 218 1.6 4.8 0.00 0.00 0.00 47 1004.2
20260504003053 19 229 3.2 12.9 0.00 0.00 0.00 45 1004.1
20260504001554 19 242 4.8 17.7 0.00 0.00 0.00 44 1004.2
20260504000053 19 216 4.8 14.5 0.00 0.00 0.00 44 1004.1
20260503234552 19 190 6.4 14.5 0.00 0.00 0.00 44 1004.1
20260503233050 19 202 6.4 14.5 0.00 0.00 0.00 43 1004.2
20260503231549 19 197 3.2 12.9 0.00 0.00 0.00 43 1004.3
20260503230048 19 200 3.2 12.9 0.00 0.00 0.00 43 1004.4
20260503224550 19 235 4.8 14.5 0.00 0.00 0.00 42 1004.7
20260503223044 19 217 6.4 14.5 0.00 0.00 0.00 42 1004.9
20260503221556 18 163 6.4 17.7 0.00 0.00 0.00 42 1005.1
20260503220040 18 188 8.0 24.1 0.00 0.00 0.00 42 1005.3
20260503214541 18 198 6.4 17.7 0.00 0.00 0.00 42 1005.4
20260503213042 18 194 11.3 25.7 0.00 0.00 0.00 40 1005.6
20260503211534 18 205 6.4 20.9 0.00 0.00 0.00 41 1005.7
20260503210033 18 201 9.7 25.7 0.00 0.00 0.00 41 1006.0
20260503204531 18 178 9.7 20.9 0.00 0.00 0.00 40 1006.2
20260503203034 18 192 8.0 27.4 0.00 0.00 0.00 43 1006.7
20260503201524 17 186 12.9 27.4 0.00 0.00 0.00 43 1007.0
20260503200020 16 205 4.8 32.2 0.00 0.00 0.00 49 1007.2
20260503194517 16 187 8.0 16.1 0.00 0.00 0.00 51 1007.6
20260503193025 15 169 6.4 22.5 0.00 0.00 0.00 51 1007.7
20260503191527 15 181 6.4 22.5 0.00 0.00 0.00 51 1007.8
20260503190009 14 179 6.4 17.7 0.00 0.00 0.00 53 1008.1
20260503184503 13 168 3.2 16.1 0.00 0.00 0.00 57 1008.5
20260503183100 12 200 4.8 12.9 0.00 0.00 0.00 60 1008.7
20260503181557 12 182 4.8 16.1 0.00 0.00 0.00 60 1009.1
20260503180059 12 198 4.8 20.9 0.00 0.00 0.00 61 1009.9
20260503174554 12 178 4.8 20.9 0.00 0.00 0.00 62 1010.5
20260503173049 11 180 1.6 14.5 0.00 0.00 0.00 65 1010.8
20260503171549 11 194 3.2 17.7 0.00 0.00 0.00 67 1011.3
20260503081534 8 267 1.6 4.8 0.00 0.00 0.00 52 1013.6
20260503071519 8 245 1.6 3.2 0.00 0.00 0.00 51 1013.9
20260503054508 8 167 0.0 3.2 0.00 0.00 0.00 52 1014.7
20260503053006 8 161 0.0 3.2 0.00 0.00 0.00 52 1014.8
20260503051503 8 161 0.0 3.2 0.00 0.00 0.00 52 1015.0
20260503050002 8 161 0.0 3.2 0.00 0.00 0.00 52 1015.0
20260503044505 8 151 0.0 3.2 0.00 0.00 0.00 52 1015.1
20260503043101 8 151 0.0 3.2 0.00 0.00 0.00 52 1015.1
20260503041600 8 151 0.0 1.6 0.00 0.00 0.00 52 1015.2
20260503040059 8 151 0.0 1.6 0.00 0.00 0.00 52 1015.2